TimeEDT,TemperatureF,Dew PointF,Humidity,Sea Level PressureIn,VisibilityMPH,Wind Direction,Wind SpeedMPH,Gust SpeedMPH,PrecipitationIn,Events,Conditions,WindDirDegrees,DateUTC
12:53 AM,55.4,41.0,58,29.69,10.0,WSW,12.7,19.6,N/A,,Clear,240,2011-10-15 04:53:00
1:53 AM,51.1,42.1,71,29.69,10.0,South,5.8,-,N/A,,Clear,190,2011-10-15 05:53:00
2:53 AM,52.0,43.0,71,29.71,10.0,South,6.9,-,N/A,,Mostly Cloudy,190,2011-10-15 06:53:00
3:53 AM,55.0,41.0,59,29.71,10.0,WSW,19.6,24.2,N/A,,Clear,250,2011-10-15 07:53:00
4:53 AM,50.0,43.0,77,29.72,10.0,SSW,5.8,-,N/A,,Clear,200,2011-10-15 08:53:00
5:53 AM,50.0,42.1,74,29.72,10.0,SSW,5.8,-,N/A,,Clear,210,2011-10-15 09:53:00
6:53 AM,48.9,41.0,74,29.73,10.0,SSW,4.6,-,N/A,,Clear,200,2011-10-15 10:53:00
7:53 AM,51.1,41.0,68,29.73,10.0,SSW,5.8,-,N/A,,Clear,210,2011-10-15 11:53:00
8:53 AM,55.4,41.0,58,29.73,10.0,SSW,8.1,-,N/A,,Clear,200,2011-10-15 12:53:00
9:53 AM,60.1,39.0,46,29.72,10.0,SW,17.3,27.6,N/A,,Clear,230,2011-10-15 13:53:00
10:53 AM,62.1,37.0,39,29.72,10.0,WSW,25.3,33.4,N/A,,Clear,250,2011-10-15 14:53:00
11:53 AM,64.4,35.6,34,29.72,10.0,West,19.6,31.1,N/A,,Clear,260,2011-10-15 15:53:00
12:53 PM,64.4,35.6,34,29.73,10.0,WSW,23.0,31.1,N/A,,Clear,240,2011-10-15 16:53:00
1:53 PM,66.0,32.0,28,29.70,10.0,West,20.7,32.2,N/A,,Clear,270,2011-10-15 17:53:00
2:53 PM,66.9,33.1,28,29.70,10.0,West,24.2,42.6,N/A,,Clear,260,2011-10-15 18:53:00
3:53 PM,66.9,32.0,27,29.71,10.0,West,19.6,35.7,N/A,,Clear,260,2011-10-15 19:53:00
4:53 PM,64.9,30.9,28,29.72,10.0,WSW,32.2,39.1,N/A,,Clear,250,2011-10-15 20:53:00
5:53 PM,64.0,30.0,28,29.74,10.0,West,16.1,34.5,N/A,,Clear,260,2011-10-15 21:53:00
6:53 PM,60.1,30.9,33,29.77,10.0,WSW,10.4,-,N/A,,Clear,250,2011-10-15 22:53:00
7:53 PM,57.9,30.9,36,29.81,10.0,WSW,10.4,-,N/A,,Clear,250,2011-10-15 23:53:00
8:53 PM,57.9,32.0,37,29.83,10.0,SW,5.8,-,N/A,,Clear,230,2011-10-16 00:53:00
9:53 PM,57.9,32.0,37,29.86,10.0,SW,6.9,-,N/A,,Clear,230,2011-10-16 01:53:00
10:53 PM,55.9,32.0,40,29.88,10.0,SW,3.5,-,N/A,,Clear,220,2011-10-16 02:53:00
11:53 PM,55.9,33.1,42,29.91,10.0,West,10.4,-,N/A,,Clear,270,2011-10-16 03:53:00